TimeCDT,TemperatureF,Dew PointF,Humidity,Sea Level PressureIn,VisibilityMPH,Wind Direction,Wind SpeedMPH,Gust SpeedMPH,PrecipitationIn,Events,Conditions,WindDirDegrees,DateUTC
12:53 AM,82.0,66.9,60,29.78,10.0,SE,12.7,19.6,N/A,,Clear,140,2013-05-19 05:53:00
1:53 AM,80.1,69.1,69,29.78,10.0,SE,12.7,-,N/A,,Clear,140,2013-05-19 06:53:00
2:53 AM,77.0,70.0,79,29.76,10.0,SE,11.5,-,N/A,,Clear,130,2013-05-19 07:53:00
3:53 AM,75.9,70.0,82,29.75,10.0,SE,11.5,-,N/A,,Clear,130,2013-05-19 08:53:00
4:53 AM,75.0,70.0,84,29.75,9.0,SE,10.4,-,N/A,,Clear,130,2013-05-19 09:53:00
5:53 AM,73.9,70.0,87,29.76,8.0,ESE,6.9,-,N/A,,Clear,110,2013-05-19 10:53:00
6:53 AM,73.4,69.8,88,29.79,6.0,ESE,6.9,-,N/A,,Clear,110,2013-05-19 11:53:00
7:16 AM,73.4,69.8,88,29.80,6.0,East,4.6,-,N/A,,Mostly Cloudy,100,2013-05-19 12:16:00
7:53 AM,75.0,70.0,84,29.79,6.0,ESE,4.6,-,N/A,,Haze,110,2013-05-19 12:53:00
8:48 AM,78.8,71.6,78,29.82,7.0,ESE,11.5,-,N/A,,Mostly Cloudy,120,2013-05-19 13:48:00
8:53 AM,78.1,71.1,79,29.79,7.0,ESE,15.0,-,N/A,,Mostly Cloudy,120,2013-05-19 13:53:00
9:35 AM,80.6,69.8,70,29.81,8.0,SE,11.5,21.9,N/A,,Scattered Clouds,140,2013-05-19 14:35:00
9:53 AM,82.0,70.0,67,29.78,8.0,SSE,12.7,21.9,N/A,,Scattered Clouds,150,2013-05-19 14:53:00
10:53 AM,87.1,71.1,59,29.78,8.0,SSE,12.7,26.5,N/A,,Partly Cloudy,150,2013-05-19 15:53:00
11:53 AM,90.0,70.0,52,29.77,8.0,South,8.1,20.7,N/A,,Partly Cloudy,180,2013-05-19 16:53:00
12:53 PM,93.9,70.0,46,29.75,8.0,SSE,8.1,18.4,N/A,,Partly Cloudy,160,2013-05-19 17:53:00
1:53 PM,96.8,69.8,41,29.75,8.0,South,10.4,17.3,N/A,,Scattered Clouds,170,2013-05-19 18:53:00
2:53 PM,96.8,68.0,39,29.72,8.0,South,10.4,16.1,N/A,,Clear,170,2013-05-19 19:53:00
3:53 PM,99.0,66.9,35,29.68,8.0,SE,10.4,17.3,N/A,,Clear,140,2013-05-19 20:53:00
4:53 PM,100.9,66.9,33,29.65,8.0,SE,11.5,26.5,N/A,,Partly Cloudy,140,2013-05-19 21:53:00
5:53 PM,100.0,66.9,34,29.63,7.0,ESE,13.8,17.3,N/A,,Partly Cloudy,120,2013-05-19 22:53:00
6:53 PM,97.0,69.1,40,29.64,6.0,SE,17.3,23.0,N/A,,Haze,130,2013-05-19 23:53:00
7:53 PM,93.9,69.1,44,29.65,5.0,SE,20.7,27.6,N/A,,Haze,130,2013-05-20 00:53:00
8:53 PM,91.0,70.0,50,29.67,7.0,SE,13.8,20.7,N/A,,Clear,140,2013-05-20 01:53:00
9:53 PM,89.1,69.1,52,29.70,8.0,SE,12.7,23.0,N/A,,Clear,140,2013-05-20 02:53:00
10:53 PM,84.2,71.6,66,29.76,10.0,ESE,15.0,-,N/A,,Clear,120,2013-05-20 03:53:00
11:53 PM,81.0,72.0,74,29.75,10.0,ESE,13.8,-,N/A,,Clear,120,2013-05-20 04:53:00